Tracking 28915 objects as of 30-May-2024
HD Live streaming from Space Station
objects crossing your sky now

OBJECT E

Track OBJECT E now!
10-day predictions
OBJECT E is classified as:


NORAD ID: 57170
Int'l Code: 2023-091E
Perigee: 539.8 km
Apogee: 558.8 km
Inclination: 97.6 °
Period: 95.5 minutes
Semi major axis: 6920 km
RCS: Unknown
Launch date: June 27, 2023
Source: (TBD)
Launch site: VOSTOCHNY COSMODROME (VOSTO)

Uplink (MHz):
Downlink (MHz): 436.550
Beacon (MHz):
Mode: 1k2AFSK/4k8GMSK
Call sign:
Status: Inactive


Uplink (MHz):
Downlink (MHz): 436.260
Beacon (MHz):
Mode: LoRa
Call sign: RS52SG
Status: Unknown

Your satellite tracking list
Your tracking list is empty




NASA's NSSDC Master Catalog

Two Line Element Set (TLE):
1 57170U 23091E   24151.18335545  .00003778  00000-0  24885-3 0  9997
2 57170  97.6154 203.7385 0013729 157.6264 202.5566 15.08052119 50794
Source of the keplerian elements: AFSPC